Home > Weather > Cap-Haïtien > Past weeks

Flag for Haiti Weather for the Past 2 Weeks in Cap-Haïtien, Haiti

Now
73 °F

Partly cloudy.


Feels Like: 70 °F
Forecast: 73 / 78 °F
Wind: No wind

Location: Santiago

Current Time: Feb 14, 2016 at 1:07:02 AM

Latest Report: Feb 13, 2016 at 11:00 PM


Visibility: N/A

Pressure: 30.04 "Hg

Humidity: 94%

Dew point: 72 °F

Location of Cap-HaïtienLocation

Historic Weather in Cap-Haïtien — Graph

°F

Cap-Haïtien Temperature Yesterday

Maximum temperature yesterday: 86 °F (at 2:00 PM)
Minimum temperature yesterday: 64 °F (at 7:00 AM)
Average temperature yesterday: 76 °F

High & Low Weather Summary for the Past Weeks

 TemperatureHumidityPressure
High88 °F (Jan 31, 3:00 PM)100% (Jan 30, 12:00 AM)30.15 "Hg (Jan 30, 12:00 AM)
Low59 °F (Feb 5, 5:00 AM)33% (Feb 4, 2:00 PM)29.92 "Hg (Feb 1, 4:00 PM)
Average75 °F81%30.02 "Hg
* Reported Jan 29 11:00 PM — Feb 13 11:00 PM, Cap-Haïtien, Weather by CustomWeather, © 2016

Note: Actual official high and low records may vary slightly from our data, if they occured in-between our weather recording intervals... More about our weather records

Advertising

Cap-Haïtien Weather History for the Previous 24 Hours

 ConditionsComfort  
Time TempWeatherWind HumidityBarometerVisibility
11:00 PM
Sat, Feb 13
73 °FPartly cloudy.No wind94%30.04 "HgN/A
10:00 PM73 °FPassing clouds.5 mph94%30.04 "HgN/A
9:00 PM75 °FPassing clouds.5 mph83%30.04 "HgN/A
8:00 PM77 °FPartly cloudy.5 mph79%30.01 "HgN/A
7:00 PM75 °FPassing clouds.5 mph78%29.98 "HgN/A
6:00 PM79 °FPassing clouds.5 mph65%29.98 "HgN/A
5:00 PM81 °FPassing clouds.6 mph62%29.95 "HgN/A
4:00 PM86 °FPassing clouds.7 mph46%29.95 "HgN/A
3:00 PM86 °FPassing clouds.6 mph52%29.95 "HgN/A
2:00 PM86 °FPassing clouds.5 mph46%29.95 "HgN/A
1:00 PM84 °FPassing clouds.12 mph48%29.98 "HgN/A
12:00 PM84 °FPassing clouds.9 mph55%30.01 "HgN/A
11:00 AM82 °FPassing clouds.13 mph58%30.04 "HgN/A
10:00 AM79 °FPassing clouds.9 mph70%30.07 "HgN/A
9:00 AM75 °FPassing clouds.7 mph83%30.07 "HgN/A
8:00 AM70 °FPassing clouds.No wind100%30.07 "HgN/A
7:00 AM64 °FPassing clouds.No wind94%30.04 "HgN/A
5:00 AM66 °FPassing clouds.5 mph100%30.01 "HgN/A
4:00 AM68 °FPassing clouds.7 mph94%29.98 "HgN/A
3:00 AM68 °FPassing clouds.5 mph100%29.98 "HgN/A
2:00 AM68 °FPassing clouds.5 mph100%30.01 "HgN/A
1:00 AM70 °FPassing clouds.5 mph100%30.04 "HgN/A
Weather by CustomWeather, © 2016

See weather overviewHow to use our weather pages